Regional Weather Roundup
Issued by NWS Albany, NY

Home | Current Version | Previous Version | Text Only | Print | Product List | Glossary On
Versions: 1 2 3 4 5 6 7 8 9 10 11 12 13 14 15 16 17 18 19 20 21 22 23 24 25 26 27 28 29 30 31 32 33 34 35 36 37 38 39 40 41 42 43 44 45 46 47 48 49 50
000
ASUS41 KALY 220510
RWRALY

NEW YORK STATE HOURLY WEATHER ROUNDUP
NATIONAL WEATHER SERVICE ALBANY NY
100 AM EDT FRI AUG 22 2014

NOTE: "FAIR" INDICATES FEW OR NO CLOUDS BELOW 12,000 FEET WITH NO
SIGNIFICANT WEATHER AND/OR NO OBSTRUCTIONS TO VISIBILITY.

NYZ032-033-038>043-046>054-057>066-NYZ062>081-220600-
EAST


CITY           SKY/WX    TMP DP  RH WIND       PRES   REMARKS
ALBANY         LGT RAIN  67  63  87 E5        30.01S
GLENS FALLS    CLOUDY    63  61  93 NE5       30.02F
POUGHKEEPSIE   LGT RAIN  68  65  90 CALM      30.01F
NEWBURGH       CLOUDY    66  64  94 S6        30.05
MONTGOMERY     CLOUDY    65  63  93 CALM      30.03F
WHITE PLAINS   DRIZZLE   68  66  93 SE10      30.02F
ISLIP          CLOUDY    71  63  75 E3        30.03F
NEW YORK CITY  LGT RAIN  67  64  90 SE6       30.02F
CENTRAL PARK   LGT RAIN  66  64  93 VRB3      30.05F FOG
$$

NYZ005>009-017-018-044>046-055-056-220600-
CENTRAL


CITY           SKY/WX    TMP DP  RH WIND       PRES   REMARKS
FULTON         PTCLDY    65  63  93 CALM      29.97S FOG
SYRACUSE       MOCLDY    66  65  96 E3        29.96F
ROME           CLOUDY    66  65  96 NE3       29.99R
ELMIRA         FOG       63  63 100 CALM      29.99F VSB 1/2
BINGHAMTON     PTCLDY    64  62  93 SW3       30.01F
MONTICELLO     CLOUDY    63  61  94 SE7       30.05F
$$

NYZ026>034-041>043-220600-
NORTH


CITY           SKY/WX    TMP DP  RH WIND       PRES   REMARKS
WATERTOWN      CLEAR     64  60  87 NE3       29.96S FOG
FORT DRUM      NOT AVBL
MASSENA        MOCLDY    64  63  96 NE8       30.00F
SARANAC LAKE   CLOUDY    60  60 100 NE6       30.02S
PLATTSBURGH    CLOUDY    64  62  93 S6        30.03F
$$

NYZ001>004-010>016-019>021-220600-
WEST


CITY           SKY/WX    TMP DP  RH WIND       PRES   REMARKS
NIAGARA FALLS  CLEAR     66  63  90 CALM      29.97R
BUFFALO        PTCLDY    69  66  90 S6        29.98R
DUNKIRK        PTCLDY    66  63  90 S5        30.00R
JAMESTOWN      PTCLDY    64  63  94 CALM      30.04S
WELLSVILLE     CLEAR     64  62  93 W3        30.06S
ROCHESTER      MOCLDY    69  66  90 CALM      29.97F
PENN YAN       PTCLDY    66  64  93 CALM      29.99F FOG
$$

             KEY
       WCI = WIND CHILL INDEX
       VSB = VISIBILITY
       HX  = HEAT INDEX
$$



USA.gov is the U.S. government's official web portal to all federal, state and local government web resources and services.